User: anonymous   Login
Location: Unspecified
(0.0000°N, 0.0000°E)
Time: 06:18:38
(UTC+00:00)
Language:

RS-15 - Orbit

View from above orbital plane
View from above orbital plane
View from above satellite
View from above satellite

Ground track
Ground track

The orbit data is extracted from the following two-line orbital elements,

1 23439U 94085A   17119.96932372 -.00000045 +00000-0 -67418-4 0  9998
2 23439 064.8157 297.1563 0167246 254.0634 280.2757 11.27565565919976
Epoch (UTC): 29 April 2017 23:15:49
Eccentricity: 0.0167246
inclination: 64.8157°
perigee height: 1882 km
apogee height: 2163 km
right ascension of ascending node: 297.1563°
argument of perigee: 254.0634°
revolutions per day: 11.27565565
mean anomaly at epoch: 280.2757°
orbit number at epoch: 91997

The dashed part of the orbit path shows where the satellite is in the earth's shadow,  

DLR